#timestamp,LO_Frequency,Hit,StdDev 
1602498195.1,286046941.1,P
1602498215.9,286046939.2,P
1602498235.7,286046939.5,P
1602498255.5,286046939.6,Y
1602498275.4,286046996.6,P
1602498295.2,286046995.8,N
1602498315.1,286046993.9,N
1602498316.0,286046993.9,N
1602498335.8,286046991.8,N
1602498355.6,286046992.6,N
1602498375.5,286046993.2,N
1602498395.3,286046988.6,N
1602498415.1,286046989.4,N
1602498435.9,286046990.0,N
1602498455.7,286046985.4,N
1602498475.6,286046985.4,N
1602498495.4,286046985.9,N
1602498515.2,286046985.7,N
1602498535.1,286046985.8,N
1602498536.0,286046985.8,N
1602498555.8,286046985.7,N
1602498575.6,286046988.4,N
1602498595.5,286046984.2,N
1602498615.3,286046985.2,N
1602498635.2,286046983.2,N
1602498655.9,286046980.9,N
1602498675.7,286046982.0,N
1602498695.6,286046981.4,N
1602498715.4,286046978.9,N
1602498735.2,286046980.4,N
1602498755.1,286046978.1,N
1602498756.0,286046978.1,N
1602498775.8,286046978.5,N
1602498795.7,286046977.5,N
1602498815.5,286046978.7,Y
1602498835.3,286046991.6,P
1602498855.2,286046989.8,P
1602498875.0,286046986.9,P
1602498875.9,286046986.9,Y
1602498895.8,286047001.0,P
1602498915.6,286047000.4,N
1602498935.4,286046998.2,N
1602498955.3,286046999.3,N
1602498975.1,286046998.8,N
1602498995.9,286046998.1,N
1602499015.7,286046998.1,N
1602499035.5,286046999.2,N
1602499055.4,286046996.6,N
1602499075.2,286046995.3,N
1602499095.0,286046995.7,N
1602499095.9,286046995.7,N
1602499115.8,286046994.3,N
1602499135.6,286046994.3,N
1602499155.5,286046991.8,N
1602499175.3,286046991.9,N
1602499195.1,286046991.7,N
1602499215.9,286046992.6,N
1602499235.7,286046990.4,N
1602499255.5,286046990.9,N
1602499275.4,286046990.2,N
1602499295.2,286046993.0,N
1602499315.1,286046989.1,Y
1602499316.0,286046989.1,P
1602499335.8,286046991.5,N
1602499355.6,286046987.0,P
1602499375.5,286046985.5,Y
1602499395.3,286046996.0,P
1602499415.2,286046993.7,N
1602499435.9,286046994.2,N
1602499455.7,286046991.8,Y
1602499475.6,286047000.1,P
1602499495.4,286047002.3,N
1602499515.2,286047002.3,N
1602499565.1,286047002.7,E
1602499575.0,286047000.4,N
1602499575.9,286047000.4,P
1602499595.8,286046999.3,P
1602499615.6,286046997.1,Y
1602499635.4,286046995.2,P
1602499655.3,286046995.6,N
1602499675.1,286046994.6,N
1602499695.9,286046991.7,Y
1602499715.7,286046995.7,P
1602499735.5,286046996.2,P
1602499755.4,286046995.6,P
1602499775.2,286046995.5,Y
1602499795.1,286046999.0,P
1602499796.0,286046999.0,N
1602499815.8,286046998.8,N
1602499835.6,286046997.6,N
1602499855.5,286046994.0,Y
1602499875.3,286046997.3,P
1602499895.1,286046998.8,P
1602499915.9,286046999.0,N
1602499935.7,286046996.9,Y
1602499955.6,286046998.6,P
1602499975.4,286046998.9,P
1602499995.2,286046995.1,P
1602500015.1,286046993.5,Y
1602500016.0,286046993.5,P
1602500035.8,286046997.1,N
1602500055.7,286046996.2,N
1602500075.5,286046996.4,N
1602500095.3,286046995.9,N
1602500115.2,286046995.3,Y
1602500135.0,286047000.6,P
1602500135.9,286047000.6,N
1602500155.8,286047000.0,N
1602500175.6,286047000.0,N
1602500195.4,286047001.1,N
1602500215.3,286046999.2,N
1602500265.1,286046999.3,E
1602500275.1,286046999.1,N
1602500276.0,286046999.1,P
1602500295.8,286046999.2,P
1602500315.6,286047001.0,Y
1602500335.5,286047001.0,P
1602500355.3,286046999.3,N
1602500375.1,286046995.5,P
1602500395.9,286046995.7,N
